Location: Caser�o Ton��
(42.2058°N, 2.9795°E)
Time: 12:11:38
(UTC+00:00)

Daily predictions for brighter satellites

Satellite Brightness Start Highest point End
(mag) Time Altitude Azimuth Time Altitude Azimuth Time Altitude Azimuth
Cosmos 1833 Rocket 3.5 17:21:07 10° N 17:26:01 30° NE 17:30:53 10° ESE
H-2A R/B 3.2 17:23:37 10° ESE 17:27:19 21° ENE 17:31:06 10° NNE
Meteor 1-21 Rocket 4.2 17:22:25 10° S 17:27:54 75° E 17:33:30 10° NNE
Lacrosse 5 3.7 17:23:32 10° WNW 17:28:07 35° SW 17:32:40 10° S
NOSS 2-1 (D) 3.4 17:24:57 10° SW 17:28:17 59° NW 17:31:39 10° NNE
Cosmos 1939 Rocket 3.1 17:25:21 10° SSE 17:29:18 49° ENE 17:33:13 10° N
Cosmos 44 4.1 17:27:29 10° SW 17:32:10 53° NW 17:37:12 10° NNE
Cosmos 1602 Rocket 3.7 17:27:57 10° S 17:32:11 52° E 17:36:27 10° NNE
H-2A R/B 2.3 17:28:10 10° N 17:32:32 75° WNW 17:36:46 10° SSW
Cosmos 2026 Rocket 4.3 17:27:38 10° SSE 17:33:23 43° E 17:39:14 10° NNE
USA 229 DEB 4.1 17:26:44 10° NNW 17:33:55 55° NE 17:41:26 10° SE
USA 229 4.1 17:26:51 10° NNW 17:34:01 54° NE 17:41:32 10° SE
Feng Yun 1-1 Rocket 4.4 17:29:23 10° SE 17:34:39 51° ENE 17:40:04 10° N
CZ-3B R/B 2.8 17:32:21 10° NNW 17:34:55 33° NE 17:41:29 10° ESE
SJ 16-02 2.9 17:31:13 10° SW 17:35:16 36° WNW 17:39:21 10° N
SeaSat 1 4.4 17:32:00 10° N 17:36:03 26° NW 17:40:04 10° WSW
CSL-04 DEB 4.4 17:33:06 10° NNE 17:37:10 62° ESE 17:41:07 10° S
FengYun 1-2 T 4.4 17:31:49 10° SSE 17:37:24 84° WSW 17:43:04 10° NNW
Cosmos 990 Rocket 4.1 17:33:26 10° SSW 17:38:38 81° WNW 17:43:51 10° NNE
YAOGAN 1 3.7 17:35:26 10° ESE 17:38:47 22° ENE 17:42:10 10° NNE
Cosmos 2112 Rocket 3.9 17:33:45 10° NNW 17:38:59 76° ENE 17:44:10 10° SSE
Cosmos 1844 Rocket 4.1 17:35:18 10° SW 17:40:30 37° WNW 17:45:44 10° N
H-2A R/B 3.8 17:36:43 10° S 17:40:41 46° W 17:44:50 10° NNW
Cosmos 1689 Rocket 3.7 17:41:34 12° ENE 17:42:59 15° E 17:44:47 10° SE
Aureole 3 Rocket 3.3 17:41:00 10° NNE 17:44:08 35° E 17:48:00 10° SSE
COSMOS 2406 3.5 17:39:59 10° NNW 17:45:34 47° ENE 17:51:05 10° SE
Cosmos 2082 Rocket 3.2 17:41:06 10° N 17:45:44 24° NE 17:50:19 10° ESE
Cosmos 1703 3.2 17:42:21 10° S 17:46:12 89° W 17:50:06 10° N
Cosmos 1825 Rocket 4.3 17:43:30 10° SSE 17:47:18 30° E 17:51:09 10° NNE
IRS-1C Rocket 4.3 17:43:09 10° SE 17:48:10 48° ENE 17:53:12 10° N
X-37B 0.8 17:45:59 10° WNW 17:49:08 58° N 17:51:36 15° E
NOSS 3-1 (A) 4.2 17:42:11 10° NNW 17:49:39 60° NE 17:58:15 10° SE
ISS -1.6 17:49:29 10° NW 17:51:44 16° N 17:53:50 11° NE
Cosmos 1812 Rocket 3.5 17:49:03 10° N 17:53:26 70° E 17:57:44 10° SSE
Okean O Rocket 2.7 17:49:44 10° S 17:54:02 50° W 17:58:21 10° NNW
CZ-4 R/B 1.8 17:54:34 10° SE 17:58:19 38° ENE 18:02:02 10° N
Iridium 4 Rocket 3.5 17:56:34 10° N 18:01:50 59° E 18:06:36 10° SSE
CSL-04 Rocket 4.5 17:58:13 10° ESE 18:02:50 29° ENE 18:07:31 10° N
ERS-2 2.3 17:59:52 10° NNE 18:03:24 47° E 18:06:54 10° S
SKYMED 2 3.6 17:59:04 10° NNE 18:03:26 88° WNW 18:07:47 10° SSW
Okean-O 2.9 18:01:37 10° SE 18:05:48 43° ENE 18:10:01 10° N
Cosmos 1428 Rocket 4.5 18:02:38 10° S 18:08:56 81° E 18:15:17 10° N
Cosmos 1340 3.4 18:06:07 10° SSW 18:09:46 53° WNW 18:13:28 10° N
Cosmos 1346 Rocket 2.8 18:06:26 10° S 18:10:15 53° E 18:14:07 10° NNE
Cosmos 2278 Rocket 2.1 18:04:52 10° SSW 18:10:31 76° ESE 18:16:13 10° NNE
Cosmos 1953 Rocket 4.0 18:09:44 10° SSE 18:13:45 37° E 18:17:45 10° NNE
CZ-2C R/B 3.2 18:08:47 10° SSE 18:14:14 89° WSW 18:19:59 10° NNW
Cosmos 2292 Rocket 4.1 18:13:53 10° SSE 18:18:30 36° E 18:20:40 21° NE
Cosmos 1892 4.2 18:15:48 10° SE 18:17:22 19° ESE 18:17:22 19° ESE
Cosmos 44 Rocket 3.7 18:16:09 10° S 18:20:46 44° ESE 18:23:19 24° ENE
SAR-Lupe-4 3.5 18:17:50 10° NNE 18:21:21 64° ESE 18:24:53 10° S
Cosmos 405 3.3 18:20:05 10° NNW 18:23:36 65° W 18:27:04 10° S
ARGOS 3.3 18:22:42 10° SE 18:27:51 50° ENE 18:33:02 10° N
Meteor 2-19 Rocket 4.4 18:23:38 10° S 18:29:48 88° W 18:36:01 10° N
DMSP B5D1-3 4.5 18:25:08 10° NNE 18:30:11 60° E 18:35:14 10° S
Cosmos 372 Rocket 4.0 18:29:00 10° SSW 18:34:12 82° WNW 18:39:29 10° NNE
PSLV R/B 4.0 18:30:29 10° N 18:34:43 81° WNW 18:38:55 10° SSW
SAR-Lupe-1 4.1 18:34:05 12° N 18:37:24 78° WNW 18:40:58 10° SSW
CZ-4B R/B 3.8 18:35:32 10° NNW 18:38:10 22° WNW 18:40:43 10° WSW
CZ-2C R/B 2.9 18:34:30 10° NNE 18:39:54 46° E 18:45:16 10° S
Cosmos 2150 Rocket 3.9 18:38:22 10° S 18:43:25 60° ESE 18:45:58 29° NE
Cosmos 1048 Rocket 4.0 18:42:59 10° N 18:48:01 54° ENE 18:49:37 39° ESE
Cosmos-2242 3.7 18:44:04 10° NNW 18:48:17 55° W 18:52:30 10° S
Cosmos 2297 4.0 18:45:54 10° S 18:51:11 42° ESE 18:51:23 42° E
USA 290 4.1 18:53:47 10° NW 18:56:38 30° WSW 18:59:28 10° SSW
SL-08 RB Rocket 3.5 18:59:19 67° E 18:59:34 69° ENE 19:04:01 10° N
USA 276 4.0 18:57:20 10° SW 18:58:53 24° SSW 18:58:53 24° SSW
CSL-04 Debris 4.1 18:56:17 10° SSE 19:01:40 84° WSW 19:07:06 10° NNW
Helios 1A Rocket 3.6 19:00:33 10° S 19:04:37 56° W 19:08:43 10° NNW
H-2A R/B 2.8 19:01:26 10° S 19:06:20 51° W 19:11:24 10° NNW
Cosmos 1125 Rocket 3.3 19:02:53 10° S 19:08:05 74° ESE 19:08:41 65° ENE
Cosmos 1809 Rocket 4.3 19:02:22 10° S 19:08:29 85° E 19:14:40 10° N
Cosmos 1833 Rocket 3.8 19:04:47 10° NW 19:10:03 42° WSW 19:15:18 10° S
Cosmos 2298 Rocket 4.2 19:05:27 10° SSW 19:10:45 72° WNW 19:13:35 28° N
Cosmos 2266 Rocket 3.8 19:06:24 10° S 19:12:39 82° E 19:18:48 10° N
YAOGAN 1 4.2 19:10:46 10° SSW 19:14:41 33° W 19:18:38 10° NNW
USA 267 4.4 19:19:53 26° SSE 19:19:53 26° SSE 19:23:34 10° S
In-Cosmos 22 Rocket 4.5 19:16:40 10° SSW 19:22:26 69° WNW 19:28:07 10° N
X-37B 3.3 19:22:42 10° W 19:23:55 20° W 19:23:55 20° W
Cosmos 1943 Rocket 3.7 19:21:13 10° S 19:23:17 23° S 19:23:17 23° S
ISS -0.6 19:26:37 10° NW 19:26:49 11° NW 19:26:49 11° NW
Cosmos 2082 Rocket 2.8 19:24:35 10° NNW 19:30:10 55° WSW 19:33:41 22° S
CZ-4 R/B 4.3 19:30:55 10° SW 19:33:29 16° W 19:36:02 10° NW
Cosmos 2315 Rocket 4.2 19:41:28 10° N 19:46:33 61° NNW 19:46:33 61° NNW
USA 234 4.4 19:53:13 30° N 19:53:13 30° N 19:57:53 10° NW
ATLAS 5 CENTAUR R/B 4.3 20:18:29 10° SW 20:39:15 68° SW 20:39:15 68° SW
